Temp
99 98 96 94 93 91 92 92 92 94 92 92 91 91 91 89 88 85 85 85 84 85 85 84 84 84 86 87 87 87 92 84 77 87 91 93 90 86 93 92 91 91 91
98 97 95 94 93 92 90 92 93 91 92 90 88 85 85 85 84 83 83 83 81 81 82 82 82 86 83 84 89 84 88 88 79 76 83 89 86 88 87 85 89 93 90
95 91 92 90 90 88 86 85 85 85 86 85 82 81 80 82 81 81 81 80 80 80 80 80 80 81 80 83 83 84 87 87 88 78 81 87 89 86 82 83 84 85 85
89 90 83 79 79 78 80 80 80 79 80 80 80 80 80 80 80 78 76 75 75 77 77 77 78 79 78 79 80 79 81 82 82 82 81 80 78 84 80 77 76 80 79
84 83 79 79 79 79 79 76 77 78 78 78 78 79 79 80 74 69 72 73 73 73 74 75 76 77 73 73 77 77 76 78 81 81 78 75 79 76 77 78 76 76 69
80 78 77 76 75 74 75 75 74 75 74 76 74 73 74 77 63 63 65 70 72 72 71 72 72 72 74 71 70 70 72 74 74 76 78 78 78 79 76 77 75 67 65
72 74 73 73 71 68 69 69 71 71 72 73 72 72 71 68 62 61 62 70 72 73 72 73 72 76 74 67 63 64 70 68 69 74 73 75 77 78 77 75 74 71 74
71 72 71 65 65 65 68 69 71 72 71 70 70 71 70 67 61 60 60 73 73 72 70 70 70 69 69 64 67 67 68 72 77 78 75 75 76 78 78 76 75 72 72
69 69 66 69 67 68 67 68 72 72 70 70 70 69 69 69 60 59 61 72 74 71 72 70 70 69 61 61 63 62 66 71 75 68 66 66 66 66 71 74 70 67 65
66 65 67 68 69 69 69 70 73 72 71 75 72 71 65 71 58 58 61 73 71 72 72 70 67 63 60 58 59 60 60 64 71 73 72 68 66 68 66 74 68 65 65
72 73 71 71 71 71 71 72 72 71 72 73 73 74 73 70 69 59 59 70 71 71 67 66 67 60 56 55 55 63 61 63 63 68 69 69 70 72 73 74 71 71 65
75 74 72 73 76 74 71 71 73 72 72 72 73 75 78 75 60 62 59 60 63 70 67 67 66 56 55 55 58 56 56 60 63 67 66 67 67 67 66 67 68 69 67
73 72 72 73 74 74 72 72 74 73 77 75 76 76 76 76 74 62 61 61 64 70 71 65 59 57 57 60 57 57 58 59 59 59 60 61 64 65 65 66 66 67 67
72 72 72 72 72 74 78 78 78 77 76 75 75 74 75 74 72 70 70 72 67 71 67 69 64 61 59 60 59 59 59 58 57 57 58 59 60 60 60 62 63 64 62
73 73 73 75 75 74 76 75 75 71 67 74 73 74 72 72 67 54 55 66 67 65 57 72 68 62 64 63 65 59 58 58 57 56 56 57 57 57 57 58 58 60 61
73 76 78 78 77 77 74 72 59 60 56 52 48 56 71 58 50 47 47 46 47 50 67 68 65 59 57 57 56 58 58 57 58 59 57 56 56 56 56 57 57 57 56
78 79 79 77 79 77 78 76 72 63 53 51 50 49 47 49 48 47 46 47 49 54 69 70 68 67 65 59 57 56 56 56 60 57 55 55 55 55 55 55 55 55 56
79 66 80 81 80 78 78 78 79 77 74 73 53 54 50 50 50 49 48 50 65 62 74 72 72 69 66 68 68 65 62 58 57 58 62 59 56 54 54 55 54 53 54
79 80 81 81 81 77 79 79 79 78 77 77 79 56 57 49 50 48 49 62 70 74 72 75 74 72 67 65 69 67 69 68 63 58 57 58 58 60 59 58 55 53 54
79 72 74 81 80 79 79 79 79 78 77 78 78 79 78 75 70 70 69 69 72 72 78 74 73 72 70 68 65 63 65 67 69 68 65 65 65 64 66 61 58 58 57
81 80 73 80 81 80 79 77 78 80 79 77 79 75 52 77 75 75 72 75 75 74 75 70 69 70 73 70 69 71 67 65 63 69 69 70 66 68 67 67 61 63 63
83 82 78 79 80 78 75 77 74 76 77 79 75 76 55 78 72 72 77 79 78 81 79 75 76 80 72 76 77 77 71 74 72 74 73 70 69 65 66 66 71 68 67
82 79 76 75 76 71 74 78 73 68 72 79 80 80 68 77 73 78 80 73 78 80 80 79 71 72 78 71 75 76 74 71 74 74 74 73 72 72 71 71 72 72 70
77 74 75 76 72 70 73 76 78 65 75 79 80 81 81 75 71 79 81 81 77 81 80 81 81 81 79 78 81 71 75 78 77 79 75 67 65 68 68 67 65 70 69
82 77 74 70 68 76 69 76 76 69 71 74 81 81 82 71 78 78 77 72 82 80 81 82 81 81 81 79 80 79 56 45 65 51 74 74 75 74 72 71 69 72 71
77 78 82 81 79 76 73 73 76 74 75 78 81 81 81 77 75 77 83 78 76 80 83 83 82 81 81 81 79 53 42 38 57 42 69 76 69 70 71 71 71 70 71
MSLP
1003.29 1004.08 1004.91 1005.70 1006.47 1007.11 1007.25 1007.50 1008.03 1008.29 1008.55 1008.82 1009.00 1009.05 1008.97 1009.21 1009.32 1009.55 1009.53 1009.44 1009.31 1008.97 1008.80 1008.84 1008.42 1008.37 1007.97 1007.36 1007.11 1006.60 1005.67 1005.08 1005.59 1005.25 1004.96 1004.57 1004.59 1004.57 1004.37 1004.75 1005.09 1005.41 1005.57
1003.82 1004.72 1005.25 1006.01 1006.25 1006.80 1007.34 1007.31 1007.61 1008.14 1008.35 1008.90 1009.33 1009.63 1009.81 1009.83 1009.89 1009.84 1009.75 1009.59 1009.42 1009.19 1008.93 1008.76 1008.41 1008.03 1007.61 1007.17 1006.51 1006.08 1005.59 1005.11 1005.33 1005.32 1005.10 1004.35 1004.44 1004.50 1004.79 1004.92 1004.72 1004.25 1004.59
1003.72 1005.34 1005.71 1006.42 1007.44 1007.40 1007.99 1008.89 1008.67 1008.95 1009.33 1009.61 1010.13 1010.21 1010.43 1010.23 1010.21 1010.34 1010.07 1009.75 1009.65 1009.34 1008.87 1008.53 1008.24 1007.99 1007.47 1006.96 1006.59 1006.11 1005.56 1004.95 1004.48 1004.61 1004.39 1004.21 1003.72 1003.54 1004.19 1004.36 1004.46 1004.39 1004.37
1002.91 1006.01 1006.26 1007.33 1008.32 1009.21 1009.37 1009.82 1010.19 1010.47 1010.27 1010.31 1010.35 1010.47 1010.43 1010.45 1010.33 1010.65 1010.61 1010.20 1010.17 1009.68 1009.20 1008.77 1008.31 1007.97 1007.37 1007.07 1006.66 1006.17 1005.70 1005.15 1004.53 1004.10 1003.79 1003.61 1003.43 1003.32 1003.81 1004.12 1004.19 1004.32 1004.75
1005.43 1006.03 1007.06 1007.59 1008.78 1009.84 1009.62 1010.27 1010.85 1011.21 1011.04 1010.96 1011.09 1010.91 1010.96 1010.32 1011.32 1011.51 1011.09 1010.60 1010.24 1009.68 1009.10 1008.76 1008.21 1007.73 1007.50 1007.20 1006.87 1006.22 1005.94 1005.34 1004.54 1003.84 1003.35 1003.30 1002.96 1002.95 1003.08 1003.19 1003.68 1003.87 1004.85
1007.85 1008.31 1008.19 1007.53 1009.11 1010.09 1010.10 1010.90 1010.87 1011.11 1011.42 1011.72 1011.41 1011.57 1011.38 1010.86 1012.07 1011.98 1011.87 1011.00 1010.21 1009.37 1008.85 1008.52 1008.21 1007.76 1007.06 1006.41 1006.15 1005.86 1005.66 1005.15 1004.55 1004.12 1003.27 1002.52 1001.97 1002.13 1002.64 1002.75 1003.16 1004.21 1004.80
1008.01 1008.44 1008.83 1009.14 1010.29 1011.03 1011.33 1011.87 1011.95 1011.78 1011.96 1011.71 1012.04 1011.98 1011.72 1012.04 1012.48 1012.13 1011.96 1010.95 1009.90 1008.90 1008.63 1008.23 1007.71 1007.10 1006.54 1006.76 1006.59 1005.97 1004.97 1004.36 1003.94 1003.44 1002.79 1002.25 1001.67 1001.57 1002.03 1002.15 1002.53 1003.23 1003.42
1007.75 1008.45 1009.40 1009.60 1010.17 1009.90 1011.17 1012.53 1012.78 1012.19 1011.47 1012.22 1012.23 1011.93 1012.13 1012.48 1012.82 1012.57 1011.65 1009.98 1009.19 1008.97 1008.96 1008.43 1007.95 1007.38 1007.09 1007.11 1006.39 1005.60 1004.71 1003.84 1002.77 1002.03 1001.67 1001.51 1001.40 1001.36 1001.31 1001.54 1001.71 1002.28 1002.96
1007.71 1008.03 1009.21 1010.40 1009.95 1010.59 1011.94 1012.75 1012.61 1011.37 1011.91 1012.38 1012.27 1012.23 1012.30 1012.44 1012.78 1012.04 1011.21 1009.64 1008.97 1009.01 1008.67 1008.31 1007.95 1007.41 1007.56 1007.27 1006.51 1005.31 1004.20 1002.92 1001.84 1001.35 1000.94 1000.91 1000.92 1000.74 1000.68 1000.85 1001.41 1002.37 1002.99
1009.73 1009.99 1008.77 1009.79 1010.30 1011.17 1011.81 1012.30 1011.81 1011.63 1012.03 1011.77 1012.02 1012.23 1012.59 1012.13 1011.99 1011.71 1011.29 1009.97 1009.33 1008.88 1008.29 1008.16 1007.95 1007.82 1007.41 1006.94 1006.34 1005.13 1003.87 1002.60 1001.57 1000.83 1000.67 1000.62 1000.42 1000.24 1000.27 1000.37 1001.14 1001.75 1002.55
1009.77 1010.11 1009.14 1009.80 1010.38 1011.37 1012.05 1012.09 1011.71 1011.80 1011.97 1011.81 1011.70 1011.63 1011.51 1011.61 1011.63 1011.57 1011.21 1010.53 1009.79 1008.92 1008.71 1008.52 1008.26 1007.88 1007.31 1006.67 1005.97 1004.70 1003.80 1002.57 1001.80 1000.87 1000.53 1000.31 1000.13 999.97 1000.16 1000.37 1001.06 1001.42 1002.24
1009.49 1009.57 1009.43 1010.10 1010.46 1011.36 1011.81 1011.68 1011.41 1011.68 1011.70 1011.63 1011.35 1010.89 1010.71 1011.10 1011.59 1011.49 1011.07 1010.53 1010.10 1009.25 1008.89 1008.88 1008.35 1007.90 1007.21 1006.35 1005.63 1004.88 1003.44 1002.00 1001.38 1000.72 1000.59 1000.46 1000.35 1000.37 1000.80 1001.11 1001.46 1001.83 1002.15
1009.48 1009.73 1010.14 1010.59 1010.91 1011.22 1011.28 1011.39 1011.44 1011.45 1011.15 1011.13 1010.92 1010.74 1010.73 1010.97 1011.33 1011.35 1010.93 1010.43 1009.96 1009.35 1009.38 1009.21 1008.62 1007.92 1007.29 1006.57 1005.82 1004.99 1004.01 1003.07 1002.25 1001.85 1001.70 1001.35 1001.01 1001.19 1001.55 1001.88 1002.21 1002.43 1002.49
1009.57 1010.08 1010.42 1010.69 1010.90 1011.06 1010.80 1010.89 1010.92 1011.14 1011.20 1011.27 1011.13 1011.07 1011.03 1011.31 1011.64 1011.70 1011.31 1010.72 1010.27 1009.56 1009.25 1009.08 1008.55 1008.17 1007.56 1007.05 1006.53 1005.80 1005.14 1004.67 1004.03 1003.63 1003.26 1002.93 1002.62 1002.45 1002.49 1002.73 1003.02 1003.28 1003.09
1009.53 1009.99 1010.27 1010.61 1010.52 1010.92 1010.85 1011.30 1011.52 1012.10 1012.24 1012.17 1012.14 1011.72 1011.75 1011.73 1012.42 1012.67 1012.49 1011.63 1011.10 1010.33 1009.97 1008.80 1008.77 1008.48 1007.93 1007.39 1006.93 1006.81 1006.32 1005.85 1005.53 1005.24 1004.83 1004.43 1004.25 1004.21 1003.66 1003.70 1003.85 1004.07 1003.73
1009.37 1009.60 1009.57 1009.74 1010.18 1010.46 1011.18 1011.79 1012.31 1012.46 1012.83 1013.05 1013.13 1013.07 1012.45 1012.53 1012.62 1012.47 1012.10 1011.65 1011.17 1010.32 1009.64 1009.23 1009.30 1009.36 1008.88 1008.45 1008.07 1007.66 1007.42 1007.12 1006.79 1006.48 1006.19 1005.95 1005.65 1005.59 1005.58 1004.67 1004.91 1005.59 1004.96
1008.59 1008.73 1009.15 1009.26 1009.54 1010.03 1010.18 1010.69 1011.43 1012.47 1012.65 1012.77 1012.84 1012.88 1012.93 1012.64 1012.39 1012.08 1011.61 1011.30 1010.68 1010.09 1009.59 1009.29 1009.13 1008.93 1009.02 1009.05 1008.79 1008.58 1008.25 1008.09 1007.67 1007.49 1007.35 1007.19 1007.05 1006.78 1006.36 1005.64 1006.07 1006.47 1006.68
1008.39 1008.81 1008.95 1008.91 1009.39 1009.76 1009.95 1010.18 1010.17 1010.51 1010.96 1011.56 1012.05 1012.18 1012.00 1012.06 1011.85 1011.67 1011.22 1010.95 1010.19 1010.02 1009.24 1009.08 1008.64 1008.78 1008.79 1008.50 1008.54 1008.69 1008.57 1008.49 1008.15 1008.12 1007.88 1007.85 1007.66 1007.69 1007.86 1007.81 1007.67 1008.26 1008.44
1008.29 1008.63 1008.55 1008.83 1009.15 1009.40 1009.77 1009.97 1009.98 1010.18 1010.27 1010.27 1010.03 1011.27 1011.17 1011.06 1010.88 1010.89 1010.98 1010.92 1009.72 1008.91 1009.07 1008.50 1008.43 1008.25 1008.14 1008.13 1008.21 1008.58 1008.15 1008.38 1008.60 1008.42 1008.36 1008.21 1008.19 1008.10 1008.32 1008.61 1008.88 1008.78 1009.16
1008.14 1008.32 1008.49 1008.63 1009.01 1009.43 1009.39 1009.37 1009.26 1009.59 1009.71 1009.44 1009.39 1009.47 1009.63 1009.87 1010.13 1010.27 1009.99 1009.52 1009.07 1008.69 1008.19 1008.39 1008.13 1007.99 1008.05 1007.87 1007.98 1008.13 1008.38 1008.20 1008.33 1008.37 1008.43 1008.35 1008.25 1008.35 1008.12 1008.33 1008.54 1008.85 1009.50
1007.59 1008.21 1008.61 1008.53 1008.44 1008.62 1008.72 1009.05 1008.98 1008.88 1008.83 1008.94 1008.90 1009.31 1010.00 1010.09 1009.67 1009.47 1009.18 1008.86 1008.44 1008.27 1008.25 1008.12 1008.14 1008.06 1008.01 1007.85 1007.75 1007.61 1008.11 1008.19 1008.21 1008.00 1007.97 1007.89 1008.02 1007.90 1008.14 1008.21 1008.45 1008.58 1009.16
1006.97 1007.30 1008.24 1008.45 1008.28 1008.25 1008.64 1008.90 1009.06 1008.97 1008.80 1008.49 1008.93 1009.27 1009.49 1009.31 1009.27 1009.14 1008.51 1008.07 1007.98 1007.88 1007.99 1008.06 1007.93 1007.54 1007.92 1007.75 1007.67 1007.41 1007.68 1007.44 1007.43 1007.43 1007.44 1007.38 1007.56 1007.85 1007.64 1007.74 1007.78 1008.02 1008.23
1006.33 1006.71 1007.21 1007.85 1008.04 1008.19 1008.67 1008.59 1008.87 1009.10 1008.85 1008.38 1008.19 1008.43 1009.08 1008.71 1008.68 1008.11 1007.66 1007.93 1007.85 1007.73 1007.72 1007.75 1007.86 1007.80 1007.52 1007.77 1007.75 1007.62 1007.48 1007.55 1007.58 1007.59 1007.43 1007.17 1007.19 1007.29 1007.55 1007.62 1007.42 1007.38 1007.71
1006.14 1006.40 1006.85 1007.23 1007.66 1007.98 1008.16 1008.02 1008.56 1009.00 1008.68 1008.27 1007.75 1007.84 1007.86 1007.98 1007.93 1007.55 1007.47 1007.51 1007.53 1007.43 1007.54 1007.33 1007.30 1007.43 1007.56 1007.52 1007.29 1007.77 1007.58 1007.62 1007.68 1007.57 1007.74 1007.83 1007.88 1007.66 1007.75 1007.74 1007.87 1007.81 1007.63
1005.54 1005.80 1006.12 1006.69 1006.90 1007.62 1007.75 1008.19 1008.27 1008.78 1008.62 1008.17 1007.25 1007.18 1007.07 1007.68 1007.28 1007.08 1007.21 1007.49 1007.20 1007.19 1007.10 1007.13 1007.19 1007.10 1007.13 1007.38 1007.39 1007.49 1008.33 1008.39 1008.24 1008.37 1007.76 1007.61 1007.45 1007.46 1007.53 1007.59 1007.65 1007.52 1007.61
1005.27 1005.48 1005.12 1005.23 1006.06 1006.85 1007.49 1007.80 1007.62 1007.81 1007.76 1007.17 1006.82 1006.83 1006.73 1007.07 1007.10 1006.98 1006.69 1006.76 1006.75 1006.64 1006.59 1006.66 1006.79 1006.87 1007.05 1006.92 1007.09 1008.03 1008.44 1008.57 1008.45 1008.59 1008.23 1007.65 1007.65 1007.67 1007.70 1007.58 1007.62 1007.69 1007.62
Wind_Speed
19 17 16 14 13 12 11 10 9 8 7 7 7 7 7 7 8 8 9 10 11 11 11 11 13 11 12 11 11 13 13 8 10 12 12 11 12 8 9 9 9 10 11
12 9 11 9 10 10 8 8 7 6 4 2 4 5 6 6 8 9 11 11 12 12 12 12 13 11 13 13 12 14 13 14 8 13 12 12 12 9 8 9 10 10 11
12 1 7 6 3 6 7 7 7 4 3 3 4 4 5 6 7 9 9 10 12 13 13 13 13 13 13 12 13 13 13 12 12 10 13 12 12 11 8 10 11 11 5
16 12 14 12 10 9 7 6 4 3 1 2 3 3 4 6 7 8 10 10 12 13 14 15 15 15 14 13 13 14 13 13 13 13 12 13 10 13 7 8 9 8 7
14 15 14 13 10 8 8 7 6 6 5 5 3 4 6 4 9 9 10 12 12 14 14 15 15 17 18 17 13 15 15 14 14 13 12 11 13 11 11 9 10 9 2
12 12 11 14 12 9 9 6 6 4 5 5 7 7 6 8 14 15 12 12 14 13 13 12 12 17 19 16 15 20 19 15 16 14 14 15 13 11 9 10 9 3 3
13 13 13 13 11 7 8 8 6 6 3 5 5 5 7 8 14 16 15 12 12 12 12 14 12 12 15 10 15 21 19 18 23 17 18 17 16 12 11 12 10 9 9
13 13 11 11 9 9 8 2 1 1 6 4 5 7 6 6 10 10 17 10 10 12 13 12 13 12 10 15 18 18 16 17 19 14 14 15 14 14 12 10 10 9 5
13 15 11 8 11 10 6 2 3 7 4 4 4 4 6 5 4 11 15 13 10 12 12 12 12 11 17 18 17 17 18 18 15 13 10 7 11 13 11 7 6 9 3
4 1 12 9 11 9 6 3 4 6 4 3 2 3 1 5 5 8 10 10 12 11 11 11 10 14 20 19 15 13 14 15 15 13 7 5 7 7 11 9 8 9 6
9 8 13 11 11 8 5 4 5 3 2 1 1 3 3 3 6 6 10 11 11 10 8 9 10 15 17 17 16 13 13 13 15 10 5 4 5 4 3 6 10 9 7
10 10 12 10 8 7 6 4 4 4 3 3 2 2 3 6 5 9 12 11 9 10 9 9 11 17 16 16 12 19 19 11 7 4 4 3 2 4 5 5 5 6 3
11 11 11 9 8 7 6 5 6 4 1 4 3 4 5 7 8 9 11 14 11 9 10 9 12 11 13 12 15 19 16 9 8 9 9 7 4 5 6 5 6 8 8
11 11 10 9 7 6 6 4 3 3 4 3 4 5 5 6 9 9 10 10 13 10 8 12 12 9 9 8 11 11 10 10 10 8 8 8 8 8 7 5 4 4 5
11 10 9 8 6 5 5 5 5 6 7 5 5 5 5 6 7 5 6 8 9 9 10 10 10 9 12 11 10 10 10 9 10 9 10 10 9 9 9 8 8 5 3
10 9 8 7 8 8 7 6 8 7 3 4 4 4 4 1 5 10 10 10 13 15 5 7 8 7 8 8 7 8 8 11 9 8 9 9 10 10 9 10 9 8 8
9 8 7 6 5 4 5 8 9 7 9 8 9 9 10 13 13 13 13 10 13 11 4 4 7 7 8 7 7 6 6 6 6 7 7 7 7 8 8 11 12 10 10
7 4 7 5 5 5 4 4 4 3 6 9 11 13 14 15 14 12 14 11 2 4 6 6 7 6 4 4 7 6 5 4 5 6 7 7 6 7 7 8 9 9 7
9 8 7 6 5 2 4 3 4 3 4 3 4 6 12 16 15 11 8 4 8 4 4 4 4 5 3 4 4 4 3 7 5 3 3 2 2 5 7 6 5 8 7
9 5 6 6 7 6 6 6 5 4 5 6 4 3 4 5 2 4 5 5 3 3 4 2 4 3 5 5 5 4 5 5 5 5 5 3 3 2 5 4 3 5 3
8 9 8 7 8 8 5 5 4 4 4 2 4 4 5 5 5 7 3 1 5 2 3 3 2 3 1 2 4 2 7 5 4 4 3 3 5 4 5 4 3 6 8
9 9 10 9 8 4 3 4 3 5 6 5 2 4 10 6 4 7 7 3 2 3 2 1 5 5 0 5 2 5 3 6 4 3 1 3 4 4 3 0 3 4 3
8 7 7 9 8 5 6 8 6 2 7 8 5 3 4 6 6 7 5 2 5 3 3 1 2 1 4 3 3 1 3 3 4 3 2 1 2 3 6 3 1 3 4
7 5 5 6 5 5 7 7 5 4 9 9 8 6 8 4 6 5 5 3 3 3 3 4 1 3 4 1 1 3 3 6 5 1 3 4 3 3 1 3 3 4 1
11 6 5 7 6 8 5 11 6 7 9 9 7 8 4 3 9 3 1 4 4 4 5 2 4 2 3 1 4 3 6 5 5 8 5 4 5 6 4 3 2 5 5
7 9 11 5 4 7 8 10 9 7 9 11 6 5 4 5 8 4 6 3 5 5 5 3 5 3 5 7 4 10 6 2 3 5 6 7 2 1 2 4 2 4 7
Wind_Direction
201 195 197 198 201 208 211 214 229 247 265 266 269 273 285 314 315 314 301 292 281 287 294 287 282 276 271 265 257 257 265 247 241 262 270 269 292 221 210 195 212 233 231
185 182 185 192 195 186 208 197 199 220 224 299 334 321 313 302 303 306 301 310 304 300 299 299 296 296 293 287 279 277 277 284 263 255 267 278 273 260 244 248 246 234 229
120 199 105 146 198 103 82 52 65 71 49 51 336 305 320 321 320 310 303 306 307 305 304 299 295 292 284 283 283 284 284 286 285 247 256 257 261 264 232 237 240 241 278
122 158 101 92 87 70 83 86 60 30 55 15 10 334 329 341 322 346 342 333 313 306 307 303 300 292 287 287 286 287 285 283 275 273 269 266 262 263 254 239 238 233 224
107 119 118 109 86 89 85 68 38 20 18 18 341 0 357 343 34 7 343 318 308 303 304 302 295 298 300 292 288 283 285 283 283 282 271 265 261 252 242 242 236 221 156
113 109 104 90 105 115 82 56 61 57 21 1 22 14 353 56 20 13 346 315 303 301 300 296 286 292 287 276 269 261 261 270 270 274 279 274 269 267 245 240 231 176 208
131 117 98 98 102 80 57 29 9 48 49 25 25 10 18 40 19 360 331 304 299 308 312 308 313 294 301 4 350 329 304 260 248 259 264 260 269 266 260 246 233 197 226
116 109 113 120 126 98 75 91 251 67 56 34 23 27 19 51 13 337 328 313 318 338 319 306 311 322 352 353 331 312 294 284 280 266 254 263 264 261 246 241 241 199 121
125 132 126 146 96 93 111 169 214 70 50 63 49 26 4 65 5 0 347 333 342 327 325 319 317 342 350 337 321 306 296 285 280 269 260 257 268 261 234 231 192 165 153
84 322 120 103 116 118 133 128 81 96 64 60 68 47 157 12 70 1 350 335 347 334 338 337 344 355 337 323 316 301 286 283 287 291 250 239 241 229 223 212 165 171 150
150 135 106 103 101 115 138 136 116 92 127 50 332 164 34 38 40 9 338 341 353 342 348 351 337 338 323 314 304 319 300 295 291 272 245 244 240 206 218 188 171 178 171
135 115 105 120 127 134 136 123 130 167 159 145 56 7 85 50 51 21 336 331 322 352 1 354 342 333 329 326 336 334 329 309 262 237 247 249 211 119 83 62 83 96 76
125 121 124 128 136 141 141 154 163 162 124 68 49 38 39 37 18 24 355 337 351 2 8 345 327 343 347 0 359 359 5 9 17 35 19 15 33 56 83 75 77 83 85
132 132 134 137 141 167 168 163 115 115 94 67 46 37 47 37 28 6 359 358 352 1 7 22 359 9 358 7 14 15 18 22 28 32 30 28 32 46 48 33 54 107 108
142 143 147 145 159 150 70 61 95 41 21 27 25 37 13 31 20 333 322 336 342 326 314 30 25 14 17 20 25 23 21 31 32 32 37 44 42 34 52 50 39 4 13
154 168 173 146 178 138 134 127 61 92 193 242 253 301 354 107 347 317 310 302 304 306 351 34 41 14 14 7 21 25 31 29 28 33 45 41 44 49 20 56 53 29 35
179 158 160 177 158 163 179 174 174 202 231 240 236 239 231 270 291 289 287 286 286 309 55 41 28 24 42 32 33 29 36 23 26 52 45 47 45 41 41 41 46 37 9
174 130 175 169 171 174 182 185 242 216 203 189 227 230 226 242 253 266 285 310 225 256 33 11 15 20 12 56 75 76 56 39 48 36 50 69 62 62 46 51 61 57 21
178 179 209 171 177 172 167 205 240 196 253 262 259 192 220 241 244 253 291 258 302 78 358 6 9 347 4 134 99 127 78 79 86 84 54 74 88 112 103 88 80 82 57
192 194 220 181 153 210 210 227 216 196 227 240 260 301 170 263 174 233 233 257 229 320 32 280 334 360 7 334 147 153 151 154 133 131 139 160 167 179 109 136 141 135 136
195 173 227 228 217 201 214 225 243 267 259 293 262 114 102 289 313 303 244 267 321 62 358 37 335 41 230 321 4 4 169 186 201 162 181 176 178 205 200 196 195 179 183
202 192 184 226 238 219 221 233 259 260 260 267 14 169 178 254 248 284 308 338 325 354 351 344 319 21 169 23 2 16 20 21 23 139 278 166 175 236 85 124 111 145 154
217 213 183 195 228 183 202 230 215 319 296 274 234 197 216 256 295 245 259 96 288 308 334 299 183 323 339 163 208 44 341 80 63 52 263 236 179 39 5 189 288 50 105
212 197 199 204 188 203 260 211 224 277 294 265 266 220 253 182 223 298 298 282 257 280 279 286 4 1 346 328 111 81 354 25 354 27 331 318 48 341 71 66 44 285 192
247 232 199 191 177 239 202 243 197 234 253 269 260 269 209 127 265 340 80 227 298 286 270 326 311 299 237 74 299 51 86 46 346 330 299 315 345 359 354 306 252 330 359
218 232 246 227 203 219 229 239 225 226 245 272 219 269 276 236 267 197 254 249 235 252 224 234 236 222 290 269 103 102 112 72 310 338 313 302 224 246 264 279 347 304 316